Rome, NY

3:28 AM EDT on September 19, 2019 (GMT -0400)
Griffiss

Weather History for KRME - August, 2019

Change the Weather History Date:

Saturday, August 24, 2019

  Actual Average Record
Temperature  
Mean Temperature 60 °F -  
Max Temperature 71 °F 74 °F 90 °F (1993)
Min Temperature 48 °F 56 °F 44 °F (1965)
Degree Days  
Heating Degree Days 6    
Growing Degree Days 10 (Base 50)    
Moisture  
Dew Point 52 °F    
Average Humidity 76    
Maximum Humidity 96    
Minimum Humidity 53    
Precipitation  
Precipitation 0.00 in - - ()
Sea Level Pressure  
Sea Level Pressure 30.24 in    
Wind  
Wind Speed 2 mph (North)    
Max Wind Speed 8 mph    
Max Gust Speed -    
Visibility 10 miles    
Events      
Averages and records for this station are not official NWS values.
T = Trace of Precipitation, MM = Missing Value Source: NWS Daily Summary

Daily Weather History Graph

Daily Weather History Graph

Search for Another Location

Airport or City:

Astronomy

Aug. 24, 2019 Rise Set
Actual Time 6:16 AM EDT 7:50 PM EDT
Civil Twilight 5:46 AM EDT 8:20 PM EDT
Nautical Twilight 5:10 AM EDT 8:56 PM EDT
Astronomical Twilight 4:31 AM EDT 9:35 PM EDT
Moon 12:05 AM EDT (8/24) 3:08 PM EDT (8/24)
Length of Visible Light 14h 33m
Length of Day
13h 33m
Last Quarter, 39% of the Moon is Illuminated
Aug 24
Last Quarter
Aug 30
New
Sep 5
First Quarter
Sep 14
Full
Sep 21
Last Quarter

Hourly Weather History & Observations

Time (EDT) Temp. Dew Point Humidity Pressure Visibility Wind Dir Wind Speed Gust Speed Precip Events Conditions
12:53 AM 54.0 °F 51.1 °F 90% 30.16 in 10.0 mi Calm Calm - N/A   Clear
1:53 AM 53.1 °F 50.0 °F 89% 30.17 in 10.0 mi Calm Calm - N/A   Clear
2:53 AM 50.0 °F 48.9 °F 96% 30.19 in 10.0 mi SE 3.5 mph - N/A   Clear
3:53 AM 50.0 °F 48.0 °F 93% 30.19 in 10.0 mi Calm Calm - N/A   Clear
4:53 AM 48.9 °F 46.9 °F 93% 30.20 in 10.0 mi Calm Calm - N/A   Clear
5:53 AM 48.0 °F 46.9 °F 96% 30.20 in 10.0 mi Calm Calm - N/A   Clear
6:53 AM 48.0 °F 46.9 °F 96% 30.23 in 10.0 mi Calm Calm - N/A   Clear
7:53 AM 52.0 °F 50.0 °F 93% 30.26 in 10.0 mi Calm Calm - N/A   Clear
8:53 AM 57.0 °F 51.1 °F 81% 30.26 in 10.0 mi West 3.5 mph - N/A   Clear
9:53 AM 61.0 °F 52.0 °F 72% 30.27 in 10.0 mi Variable 4.6 mph - N/A   Clear
10:53 AM 66.0 °F 53.1 °F 63% 30.25 in 10.0 mi North 8.1 mph - N/A   Partly Cloudy
11:53 AM 68.0 °F 51.1 °F 55% 30.25 in 10.0 mi North 6.9 mph - N/A   Partly Cloudy
12:53 PM 68.0 °F 51.1 °F 55% 30.25 in 10.0 mi West 5.8 mph - N/A   Overcast
1:53 PM 66.9 °F 51.1 °F 57% 30.25 in 10.0 mi North 5.8 mph - N/A   Overcast
2:53 PM 68.0 °F 52.0 °F 56% 30.25 in 10.0 mi North 6.9 mph - N/A   Overcast
3:53 PM 70.0 °F 52.0 °F 53% 30.23 in 10.0 mi Variable 5.8 mph - N/A   Scattered Clouds
4:53 PM 71.1 °F 53.1 °F 53% 30.22 in 10.0 mi Variable 3.5 mph - N/A   Scattered Clouds
5:53 PM 71.1 °F 54.0 °F 55% 30.23 in 10.0 mi NNW 3.5 mph - N/A   Clear
6:53 PM 69.1 °F 54.0 °F 58% 30.24 in 10.0 mi NNW 5.8 mph - N/A   Clear
7:53 PM 66.0 °F 55.9 °F 70% 30.26 in 10.0 mi Calm Calm - N/A   Mostly Cloudy
8:53 PM 64.0 °F 55.9 °F 75% 30.27 in 10.0 mi Calm Calm - N/A   Overcast
9:53 PM 61.0 °F 55.9 °F 83% 30.29 in 10.0 mi NNE 3.5 mph - N/A   Partly Cloudy
10:53 PM 57.0 °F 55.0 °F 93% 30.30 in 10.0 mi SE 3.5 mph - N/A   Clear
11:53 PM 55.9 °F 54.0 °F 93% 30.30 in 10.0 mi East 4.6 mph - N/A   Clear